Regional Weather Roundup
Issued by NWS Sterling, VA

Home | Current Version | Previous Version | Text Only | Print | Product List | Glossary Off
Versions: 1 2 3 4 5 6 7 8 9 10 11 12 13 14 15 16 17 18 19 20 21 22 23 24 25 26 27 28

000
ASUS41 KLWX 241911
RWRLWX

REGIONAL WEATHER ROUNDUP
NATIONAL WEATHER SERVICE BALTIMORE MD/WASHINGTON DC
300 PM EDT WED MAY 24 2017

Note: "FAIR" indicates few or no clouds below 12,000 feet
with no significant weather and/or obstructions to visibility.
 TC=TEMPERATURE CELSIUS

 * =Non NWS site. Station does not report precipitation (e.g. rain,
    snow, etc.), thunder, or fog.

DCZ001-MDZ009-015-VAZ040>042-051-053>054-242000-
WASHINGTON METRO

CITY           SKY/WX    TMP DP  RH WIND       PRES   REMARKS
WASHINGTON NAT CLOUDY    64  58  80 SE13      29.74S
DULLES         CLOUDY    63  55  75 SE9       29.73F
ANDREWS AFB    CLOUDY    62  57  82 SE10      29.72F
FT BELVOIR     CLOUDY    63  56  79 E6        29.73F
QUANTICO       CLOUDY    64  60  87 S9        29.74S
COLLEGE PARK*  CLOUDY    63  55  76 SE8       29.73F
LEESBURG*      CLOUDY    64  59  82 SE9       29.74R
MANASSAS*      CLOUDY    63  58  83 SE7       29.73S
GAITHERSBURG*  CLOUDY    63  56  78 SE6       29.74F

$$

MDZ006>007-011-014-242000-
BALTIMORE METRO

CITY           SKY/WX    TMP DP  RH WIND       PRES   REMARKS
BWI AIRPORT    CLOUDY    65  57  75 SE9       29.74S
MD SCIENCE CTR   N/A     67  57  70 MISG      29.74F
MARTIN STATE   CLOUDY    66  61  82 E7        29.76F
ANNAPOLIS      CLOUDY    65  60  84 SE5       29.75R
FORT MEADE*    CLOUDY    61  55  82 E6        29.77S

$$

MDZ012-015-019>023-242000-
MARYLAND EASTERN SHORE

CITY           SKY/WX    TMP DP  RH WIND       PRES   REMARKS
OCEAN CITY     CLOUDY    62  55  77 NE15      29.76S
SALISBURY      CLOUDY    63  57  81 NE13      29.74F
BAY BRIDGE AP* CLOUDY    64  59  82 CALM      29.75S
CAMBRIDGE*     CLOUDY    66  57  72 SE10      29.74F
EASTON*        PTSUNNY   68  55  64 SE7       29.77F

$$

MDZ017>025-242000-
SOUTHERN MARYLAND

CITY           SKY/WX    TMP DP  RH WIND       PRES   REMARKS
PATUXENT RIVER CLOUDY    63  61  93 E9        29.74R
ST INIGOES     CLOUDY    63  59  87 E8        29.72F
LEONARDTOWN*   CLOUDY    61  57  88 E3        29.76S

$$

MDZ003>005-242000-
NORTH CENTRAL MARYLAND

CITY           SKY/WX    TMP DP  RH WIND       PRES   REMARKS
FREDERICK*     CLOUDY   N/A N/A N/A SE6G16    29.75F
HAGERSTOWN APT CLOUDY    68  53  58 SE14      29.70F
WESTMINSTER*   CLOUDY    70  54  56 SE12G17   29.73F

$$

MDZ501>502-242000-
WESTERN MARYLAND

CITY           SKY/WX    TMP DP  RH WIND       PRES   REMARKS
OAKLAND*       FOG       50  50 100 SE15G24   29.68S VSB 1/4
CUMBERLAND*    CLOUDY    63  54  72 SE10      29.74S

$$

VAZ025>031-242000-
SHENANDOAH VALLEY

CITY           SKY/WX    TMP DP  RH WIND       PRES   REMARKS
WINCHESTER*    CLOUDY    61  55  82 SE7       29.72S
FRONT ROYAL*   CLOUDY    61  55  82 E5        29.70S
LURAY*         CLOUDY    64  55  72 E8        29.69S
NEW MARKET*    CLOUDY    63  56  78 NE5       29.68S
STAUNTON*      CLOUDY    58  55  90 E5        29.72S
WAYNESBORO*    CLOUDY    56  56 100 E8G18     29.70F

$$

WVZ021-048>050-054>055-242000-
EASTERN WEST VIRGINIA PANHANDLE

CITY           SKY/WX    TMP DP  RH WIND       PRES   REMARKS
MARTINSBURG    CLOUDY    64  54  69 SE10      29.72R
PETERSBURG*    CLOUDY    63  58  84 E6        29.68S

$$

VAZ036>039-050-242000-
CENTRAL FOOTHILLS

CITY           SKY/WX    TMP DP  RH WIND       PRES   REMARKS
CHARLOTTESVILL CLOUDY    62  58  86 E5        29.70F
CULPEPER*      CLOUDY    64  59  84 CALM      29.74S
ORANGE*        CLOUDY    59  57  94 CALM      29.72S
GORDONSVILLE*  CLOUDY    61  59  93 CALM      29.70F
WARRENTON*     CLOUDY    64  56  76 E7        29.72F

$$

VAZ055>057-242000-
NORTH AND CENTRAL PIEDMONT

CITY           SKY/WX    TMP DP  RH WIND       PRES   REMARKS
FREDERICKSBRG* CLOUDY    64  62  95 SE6       29.72S
STAFFORD*      CLOUDY    63  61  94 E5        29.77S

$$

NCZ024-NYZ072-PAZ021-071-VAZ022-071-242000-
OTHER REGIONAL OBSERVATIONS

CITY           SKY/WX    TMP DP  RH WIND       PRES   REMARKS
NEW YORK CITY  CLOUDY    67  47  48 E10G18    29.78S
PHILADELPHIA   CLOUDY    71  53  52 E8        29.76R
PITTSBURGH     CLOUDY    62  60  93 E10       29.60S
ROANOKE        LGT RAIN  59  59 100 SE5       29.67F FOG
RICHMOND       CLOUDY    65  61  87 E9        29.70F
RALEIGH        CLOUDY    73  66  78 SE7       29.65S

$$

ANZ530>537-242000-
MARINE OBSERVATIONS

STATION/POSITION TIME  TEMP    WIND        PRES
                       AIR SEA DIR/SP/G
                 (UTC) (F)     (DEG/KT/KT) (MB)
THOMAS PT LIGHT  1900   63 64  130/  9/ 10   N/A
BALT KEY BRIDGE  1842   64     120/  6/  8 1007.0F
COVE POINT       1842   62     170/  9/ 10 1007.8S
LEWISETTA        1842   63 67   90/  6/  7 1006.7F
SOLOMONS ISLAND  1842   63 67  100/  8/  9   N/A
PINEY POINT      1836          130/  7/  8   N/A

$$





USA.gov is the U.S. government's official web portal to all federal, state and local government web resources and services.